sat.trackr.live / text

‹ back to catalog

STARLINK-5857

NORAD 55946 · 2023-037AJ

PAYLOAD ACTIVE UNKNOWN

§ Identity

Operator
Country
US
Launch date
2023-03-17
Launch site
AFWTR
Launch vehicle
Mass (kg)
RCS (m²)

Purposes: comms

External: N2YO · Heavens-Above · Gunter

§ Orbital elements

Epoch: 2026-09-20T22:00:03.000096Z

Period
95.78 min
Inclination
70.0026°
Eccentricity
0.0002448
Mean motion
15.03405389 rev/d
Perigee alt
554.7 km
Apogee alt
558.1 km
Semi-major
6,934.5 km
B*
1.7539e-3
RAAN
152.0977°
Arg perigee
320.7209°
Mean anomaly
143.7051°
Rev number
567

§ Raw data

STARLINK-58571 55946U 23037AJ  26263.91670139  .00023886  00000+0  17539-2 0  99922 55946  70.0026 152.0977 0002448 320.7209 143.7051 15.03405389  5675

JSON: /api/v1/satellites/55946 · /tle

For live sub-satellite position, see the globe view (requires WebGL).

§ Visibility from observer

Set your observer location to see the next 7 days of passes ≥ 10°. The values pass through the URL so the page stays shareable.

No JS? Fill the form by hand. The geolocation button needs JavaScript.